GW1652 Weather Reports


Display with metric or nautical units.
time (UTC)temp
F
wind
direction
speed
MPH
gust
MPH
rain 1hr
in
rain 24hr
in
rain mn
in
humidity
%
barometer
mb
20260505210051 59 195 1.0 8.0 0.00 0.04 0.01 78 1017.0
20260505204555 59 222 4.0 10.0 0.00 0.10 0.01 77 1017.0
20260505203105 59 167 5.0 10.0 0.00 0.10 0.01 77 1017.0
20260505201545 60 127 5.0 12.0 0.00 0.10 0.01 76 1017.1
20260505200049 59 224 4.0 11.0 0.00 0.10 0.01 76 1017.1
20260505194548 60 219 6.0 11.0 0.00 0.10 0.01 76 1017.1
20260505193044 59 203 5.0 9.0 0.00 0.10 0.01 76 1017.1
20260505191555 60 184 5.0 12.0 0.00 0.10 0.01 76 1017.2
20260505190042 60 187 7.0 13.0 0.00 0.10 0.01 75 1017.1
20260505184549 60 143 5.0 13.0 0.00 0.10 0.01 76 1016.8
20260505183048 60 211 6.0 16.0 0.00 0.10 0.01 75 1016.6
20260505181545 60 224 5.0 16.0 0.00 0.10 0.01 75 1016.4
20260505180048 59 196 5.0 11.0 0.00 0.10 0.01 76 1016.1
20260505174543 60 243 6.0 15.0 0.00 0.10 0.01 75 1016.1
20260505173044 59 185 5.0 9.0 0.00 0.10 0.01 75 1016.0
20260505171539 59 219 4.0 10.0 0.00 0.10 0.01 75 1015.9
20260505170045 59 201 3.0 6.0 0.00 0.10 0.01 75 1015.8
20260505164547 59 193 3.0 6.0 0.00 0.10 0.01 75 1015.7
20260505163042 59 159 3.0 6.0 0.00 0.10 0.01 75 1015.5
20260505161545 60 165 1.0 5.0 0.00 0.10 0.01 72 1015.3
20260505153051 62 213 3.0 8.0 0.00 0.10 0.01 65 1014.8
20260505151549 62 218 3.0 8.0 0.00 0.10 0.01 63 1014.7
20260505124550 66 158 0.0 12.0 0.00 0.10 0.01 58 1013.9
20260505123046 65 310 4.0 9.0 0.00 0.10 0.01 63 1014.1
20260505121548 65 1 5.0 9.0 0.00 0.10 0.01 66 1014.1
20260505120042 65 278 5.0 10.0 0.00 0.10 0.01 61 1014.1
20260505114551 65 4 4.0 11.0 0.00 0.10 0.01 61 1014.1
20260505113054 65 326 5.0 10.0 0.00 0.10 0.01 66 1014.4
20260505111548 64 359 4.0 8.0 0.00 0.10 0.01 67 1014.6
20260505101544 62 321 4.0 7.0 0.00 0.10 0.01 70 1015.2
20260505100039 62 30 4.0 7.0 0.00 0.10 0.01 71 1015.2
20260505094552 62 342 2.0 7.0 0.00 0.10 0.01 74 1015.3
20260505093051 61 315 3.0 6.0 0.00 0.10 0.01 76 1015.3
20260505091542 61 18 4.0 9.0 0.00 0.10 0.01 77 1015.3
20260505090056 61 353 3.0 7.0 0.00 0.10 0.01 78 1015.3
20260505084547 60 312 3.0 7.0 0.00 0.10 0.01 78 1015.3
20260505083101 59 328 4.0 8.0 0.00 0.10 0.01 79 1015.3
20260505081542 59 307 4.0 7.0 0.00 0.10 0.01 82 1015.3
20260505080047 58 298 3.0 7.0 0.00 0.10 0.01 83 1015.2
20260505074548 58 339 4.0 7.0 0.00 0.11 0.01 83 1015.1
20260505073044 58 297 2.0 7.0 0.00 0.11 0.01 83 1015.1
20260505071549 57 314 3.0 6.0 0.00 0.11 0.01 83 1015.0
20260505064548 56 286 4.0 6.0 0.00 0.21 0.01 85 1014.6
20260505063048 55 302 1.0 6.0 0.00 0.21 0.01 86 1014.5
20260505061610 55 300 3.0 7.0 0.00 0.21 0.01 88 1014.2
20260505060056 54 311 1.0 4.0 0.00 0.21 0.01 88 1013.9
20260505054554 54 310 0.0 5.0 0.00 0.22 0.01 89 1014.1
20260505053043 54 302 1.0 6.0 0.00 0.22 0.01 89 1014.1
20260505051550 54 302 2.0 6.0 0.00 0.22 0.01 89 1013.9
20260505041546 54 307 3.0 5.0 0.00 0.26 0.01 91 1013.4
20260505040057 54 310 2.0 4.0 0.00 0.26 0.01 92 1013.3
20260505034547 54 308 2.0 5.0 0.00 0.34 0.01 94 1013.2
20260505033054 54 301 2.0 4.0 0.00 0.34 0.01 94 1013.2
20260505031551 54 288 2.0 4.0 0.00 0.34 0.01 94 1013.1
20260505030044 53 279 0.0 2.0 0.00 0.34 0.01 94 1013.1
20260505024540 53 312 1.0 3.0 0.00 0.42 0.01 94 1013.1
20260505023041 54 297 1.0 3.0 0.00 0.42 0.01 94 1013.1
20260505021538 54 290 1.0 3.0 0.00 0.42 0.01 94 1013.1
20260505020046 54 288 0.0 4.0 0.00 0.42 0.01 94 1012.9
20260505014545 54 276 2.0 6.0 0.00 1.22 0.01 94 1013.0
20260505013050 54 316 1.0 3.0 0.00 1.22 0.01 94 1013.0
20260505011545 54 302 2.0 6.0 0.00 1.22 0.01 94 1013.3
20260505010058 54 294 2.0 5.0 0.00 1.22 0.01 93 1013.4
20260505004548 54 301 1.0 4.0 0.00 1.22 0.01 93 1013.5
20260505003048 54 306 2.0 5.0 0.00 1.22 0.01 93 1013.5
20260505001547 54 303 3.0 4.0 0.00 1.22 0.01 93 1013.6
20260505000054 54 0 1.0 3.0 0.00 1.22 0.01 93 1013.7
20260504234541 54 0 1.0 4.0 0.00 1.22 0.01 93 1013.8
20260504233048 53 285 0.0 2.0 0.00 1.22 0.01 93 1013.7
20260504231542 53 310 0.0 1.0 0.00 1.22 0.01 93 1013.7
20260504230048 53 305 2.0 4.0 0.01 1.22 0.01 93 1013.8
20260504224543 53 0 0.0 4.0 0.04 1.22 0.01 92 1013.7
20260504223040 53 297 1.0 4.0 0.04 1.22 0.01 92 1013.8
20260504221543 54 0 0.0 2.0 0.04 1.22 0.01 91 1013.8
20260504220049 55 293 1.0 5.0 0.03 1.21 0.00 89 1014.2
20260504214545 56 312 3.0 5.0 0.00 1.17 1.17 83 1014.2
20260504213059 56 326 2.0 5.0 0.00 1.17 1.17 83 1014.1
20260504211544 56 327 1.0 3.0 0.03 1.17 1.17 84 1014.1